Погода в Тайнани

Тайвань     22°59′51″N   120°12′02″E
темп.,
°C
ветер,
м/с
пор.,
м/с
влажн.,
%
обл.,
%
осадки,
мм/ч
давл.,
гПа
погр.,
м
7 мая, пт
пт723:00+28с11605 0.0 1014586
02:00+28юв11635 0.0 1013370
05:00+27ююз127232 0.0 1014382
08:00+28з2267100 0.0 1015840
11:00+32зюз4353100 0.0 10141257
14:00+32зюз4449100 0.0 10111075
17:00+31зюз435272 0.0 1010905
20:00+29з2161100 0.0 1011567
8 мая, сб
сб823:00+29зюз116496 0.0 1012638
02:00+28ю126831 0.0 1010605
05:00+27ююз2275100 0.0 1011545
08:00+29ююз2367100 0.0 1012916
11:00+33юз5548100 0.0 10111334
14:00+33юз6651100 0.0 10091192
17:00+31юз446194 0.0 1008931
20:00+29юз226899 0.0 1010697
9 мая, вс
вс923:00+29ююз127124 0.0 1010648
02:00+28ю237211 0.0 1008630
05:00+28юв236921 0.0 1008329
08:00+30юв23563 0.1 1010784
11:00+33юз33495 0.0 10091425
14:00+34зюз534468 0.0 10071262
17:00+32зюз445197 0.0 1006901
20:00+30зюз32625 0.0 1008588
10 мая, пн
пн1023:00+29зюз21665 0.0 1009583
02:00+28юз227095 0.0 1008616
05:00+27ю4576100 0.0 1008615
08:00+29ююз336529 0.0 10101054
11:00+32юз54535 0.0 10091193
14:00+32юз54485 0.0 10081035
17:00+31юз4453100 0.0 1007788
20:00+29ююз34621 0.0 1008566
11 мая, вт
вт1123:00+28ююз33662 0.0 1009533
02:00+27ююз4579100 0.0 1008586
05:00+26ю347187 0.0 1008581
08:00+29ю4558100 0.0 1010856
11:00+31юз5444100 0.0 1010991
14:00+32юз544092 0.0 1008947
17:00+31зюз44435 0.0 1007704
20:00+28юз335460 0.0 1008398